[[{"header":{"parameterUnit":"m.s-1","parameterCategory":2,"la1":30.2991,"la2":30.254,"lo1":-89.0895,"lo2":-89.0444,"dx":0.0017,"dy":0.0017,"nx":28,"ny":28,"refTime":"2023-02-12T09:00:00:Z","depth":"0","parameterNumber":2,"parameterNumberName":"U-component_of_CURRENTS"},"data":[0,0,0,0,0,0,0,0,0,0,0,0,0,0,0,0,0,0,0,0,0,0,0,0,0,0,0,0,0,0,0,0,0,0,0,0,0,0,0,0,0,0,0,0,0,0,0,0,0,0,0,0,0,0,0,0,0,0,0.3306,0.3307,0,0.3331,0.3331,0.333,0.3291,0.329,0.3289,0.3288,0.317,0.3168,0.3166,0,0,0,0,0,0,0,0,0,0,0,0,0,0.3281,0.3281,0.3306,0.3307,0.3308,0.3331,0.3331,0.333,0.3291,0.329,0.3289,0.3288,0.3171,0.3168,0.3166,0,0,0,0,0,0,0,0,0,0,0,0,0,0.3292,0.3281,0.3306,0.3295,0.3294,0.3331,0.3331,0.333,0.3291,0.329,0.3288,0.3287,0.3172,0.3169,0.3165,0.3171,0,0,0.3155,0.3153,0,0,0,0,0,0,0,0,0.3291,0.3292,0.3296,0.3296,0.3295,0.3311,0.3279,0.3272,0.3291,0.3287,0.3288,0.3286,0.3209,0.3202,0.3204,0.3165,0.316,0.3154,0.3152,0.3151,0.315,0,0,0,0,0,0,0,0.3291,0.3292,0.3311,0.3297,0.3297,0.3308,0.3307,0.3278,0.3248,0.3287,0.3286,0.3297,0.3206,0.3208,0.3201,0.3159,0.3155,0.3152,0.3149,0.3148,0.3076,0.3076,0,0,0,0,0,0,0.3297,0.3291,0.331,0.3312,0.3296,0.3309,0.3308,0.3303,0.3252,0.3245,0.3298,0.3295,0.3214,0.3205,0.3196,0.3195,0.3151,0.3148,0.3146,0.3076,0.3076,0.3076,0,0,0,0,0,0,0.3296,0.3297,0.3309,0.3307,0.331,0.3311,0.3306,0.3304,0.3306,0.3263,0.3252,0.3303,0.3213,0.3201,0.3186,0.319,0.3146,0.3143,0.3075,0.3076,0.3076,0.3195,0,0,0,0,0,0,0.3294,0.3296,0.3289,0.3307,0.331,0.3332,0.3308,0.3306,0.3318,0.3314,0.3263,0.3251,0.3211,0.3192,0.3183,0.3184,0.314,0.3075,0.3075,0.3076,0.319,0.3199,0.3206,0,0,0,0,0,0.3293,0.3273,0.3288,0.3291,0.3301,0.3334,0.3336,0.333,0.332,0.3325,0.3301,0.3252,0.3186,0.3191,0.318,0.318,0.3075,0.3075,0.3076,0.3187,0.3197,0.3206,0,0,0,0,0,0,0.3237,0.3269,0.3285,0.327,0.331,0.3329,0.3327,0.3339,0.3328,0.3319,0.3272,0.3259,0.3251,0.3196,0.3203,0.3156,0.3115,0.3113,0.3203,0.3212,0.3219,0.3218,0.3137,0,0,0,0,0,0.3233,0.3229,0.3279,0.3266,0.3291,0.3318,0.3329,0.3341,0.3341,0.3335,0.33,0.3259,0.3244,0.3215,0.319,0.3167,0.3148,0.3151,0.3159,0.3166,0.3156,0.3156,0.3164,0.3077,0.3077,0.3077,0,0,0.3201,0.3223,0.3216,0.3257,0.3281,0.332,0.3318,0.3345,0.3367,0.3322,0.3313,0.3298,0.3251,0.3238,0.3223,0.3189,0.3186,0.3166,0.3173,0.3158,0.3157,0.3166,0.3174,0.3077,0.3077,0.3077,0,0,0.3155,0.3171,0.317,0.3219,0.328,0.3311,0.3327,0.3363,0.3366,0.3384,0.3359,0.3349,0.3304,0.3278,0.326,0.3288,0.3246,0.3267,0.3286,0.3289,0.3296,0.3303,0.3325,0.3333,0.3249,0.3249,0.325,0,0.3128,0.3134,0.3174,0.3213,0.325,0.3313,0.3345,0.3372,0.3392,0.3404,0.3386,0.3362,0.3324,0.3321,0.3327,0.3307,0.3308,0.3265,0.3303,0.3308,0.3313,0.3333,0.334,0.3255,0.3255,0.3254,0.3253,0,0.3107,0.3126,0.3135,0.3206,0.325,0.3291,0.3362,0.3396,0.3416,0.3441,0.3456,0.3424,0.3399,0.339,0.3367,0.3374,0.3368,0.3338,0.3289,0.3329,0.3348,0.3353,0.3263,0.3261,0.326,0.3258,0,0,0.3058,0.3105,0.3122,0.3152,0.326,0.3296,0.3357,0.3429,0.3469,0.3484,0.35,0.3493,0.3483,0.3459,0.3429,0.3419,0.3468,0.3388,0.3385,0.3429,0.3496,0.3582,0.3595,0.3453,0.3453,0.3454,0.3511,0,0.305,0.3084,0.312,0.3178,0.3221,0.3307,0.3366,0.3443,0.3487,0.3517,0.3517,0.3524,0.3508,0.3497,0.3492,0.3468,0.348,0.3456,0.3432,0.3431,0.3518,0.3602,0.3729,0.3798,0.3515,0.3516,0.3516,0,0.3078,0.3087,0.3122,0.3189,0.3218,0.326,0.3378,0.3432,0.3518,0.3553,0.3574,0.3571,0.3569,0.3536,0.3543,0.3533,0.3523,0.3509,0.3511,0.3545,0.3525,0.3701,0.3817,0.3912,0.3523,0.3523,0.3522,0,0.3092,0.3119,0.3133,0.3166,0.3246,0.3274,0.3325,0.3439,0.3507,0.356,0.3608,0.3609,0.3616,0.3598,0.3598,0.3564,0.3613,0.3555,0.3634,0.3639,0.3716,0.3729,0.3932,0.3568,0.3568,0.3568,0.3567,0,0.314,0.3167,0.3126,0.3161,0.3192,0.3256,0.3331,0.3402,0.3499,0.3592,0.3608,0.3671,0.3634,0.3664,0.3628,0.3681,0.3648,0.3664,0.3667,0.3765,0.378,0.3836,0.3775,0.357,0.3569,0.3569,0.3568,0,0.3222,0.3201,0.3209,0.321,0.3214,0.3245,0.3338,0.3398,0.3507,0.3615,0.3636,0.3729,0.3791,0.3783,0.377,0.3756,0.3722,0.3784,0.3921,0.394,0.4077,0.4014,0.3718,0.3642,0.3863,0.3866,0.3868,0,0.3265,0.3271,0.3228,0.3198,0.3194,0.3232,0.3282,0.34,0.3477,0.367,0.3718,0.3822,0.3933,0.3987,0.3995,0.4006,0.3839,0.4086,0.4032,0.4141,0.4072,0.368,0.3607,0.4188,0.4193,0.4196,0.4199,0,0.3304,0.3279,0.3252,0.3195,0.319,0.3232,0.3295,0.3378,0.3547,0.367,0.3836,0.3937,0.4093,0.4213,0.4267,0.4248,0.4005,0.4163,0.424,0.4327,0.394,0.3856,0.4097,0.4233,0.423,0.4227,0.4226,0.4224,0.3281,0.3252,0.3173,0.3137,0.3148,0.3202,0.3256,0.3353,0.351,0.3726,0.388,0.4112,0.4427,0.4551,0.4491,0.4604,0.4227,0.4588,0.4499,0.4085,0.4018,0.435,0.4506,0.4505,0.4503,0.4502,0.4501,0,0.3177,0.3141,0.3102,0.306,0.3101,0.3134,0.3241,0.331,0.3467,0.3759,0.3954,0.444,0.4703,0.4861,0.5076,0.5026,0.4657,0.4926,0.4491,0.4402,0.4774,0.4819,0.5096,0.5096,0.5096,0.5096,0.5096,0.5096,0.3096,0.3004,0.2998,0.2997,0.3029,0.3099,0.3173,0.3268,0.3467,0.3794,0.4109,0.4355,0.4772,0.5213,0.5386,0.5292,0.4954,0.4732,0.4542,0.5027,0.499,0.4954,0.4994,0.5303,0.5302,0.4106,0.4099,0.4093]},{"header":{"parameterUnit":"m.s-1","parameterCategory":2,"la1":30.2991,"la2":30.254,"lo1":-89.0895,"lo2":-89.0444,"dx":0.0017,"dy":0.0017,"nx":28,"ny":28,"refTime":"2023-02-12T09:00:00:Z","depth":"0","parameterNumber":3,"parameterNumberName":"V-component_of_CURRENTS"},"data":[0,0,0,0,0,0,0,0,0,0,0,0,0,0,0,0,0,0,0,0,0,0,0,0,0,0,0,0,0,0,0,0,0,0,0,0,0,0,0,0,0,0,0,0,0,0,0,0,0,0,0,0,0,0,0,0,0,0,0.0135,0.0135,0,0.0134,0.0134,0.0134,0.0115,0.0114,0.0114,0.0114,0.009,0.009,0.0089,0,0,0,0,0,0,0,0,0,0,0,0,0,0.0069,0.007,0.0135,0.0135,0.0135,0.0134,0.0134,0.0133,0.0115,0.0114,0.0114,0.0113,0.009,0.009,0.0089,0,0,0,0,0,0,0,0,0,0,0,0,0,0.0084,0.0071,0.0135,0.0127,0.0126,0.0134,0.0134,0.0133,0.0115,0.0114,0.0114,0.0113,0.009,0.009,0.0089,0.0097,0,0,0.0088,0.0088,0,0,0,0,0,0,0,0,0.0083,0.0087,0.0128,0.0127,0.0126,0.0125,0.0102,0.0121,0.0115,0.0118,0.0114,0.0113,0.0101,0.0099,0.0099,0.0096,0.0095,0.0088,0.0087,0.0087,0.0087,0,0,0,0,0,0,0,0.0082,0.0086,0.0133,0.0128,0.0127,0.0105,0.0107,0.0105,0.0111,0.0117,0.0116,0.0119,0.01,0.0099,0.0098,0.0094,0.0088,0.0087,0.0087,0.0087,0.0094,0.0095,0,0,0,0,0,0,0.0089,0.0086,0.0133,0.0133,0.0105,0.0107,0.0109,0.0125,0.0111,0.0109,0.0119,0.0118,0.01,0.0099,0.0097,0.0111,0.0087,0.0087,0.0087,0.0094,0.0094,0.0095,0,0,0,0,0,0,0.0088,0.0094,0.0133,0.0109,0.0113,0.0109,0.0127,0.0125,0.0127,0.0113,0.011,0.0123,0.01,0.0098,0.0089,0.011,0.0087,0.0086,0.0093,0.0094,0.0095,0.0135,0,0,0,0,0,0,0.0086,0.0094,0.0107,0.0111,0.0115,0.0147,0.0127,0.0126,0.013,0.0128,0.0116,0.0113,0.0099,0.009,0.0089,0.0108,0.0086,0.0093,0.0094,0.0094,0.0133,0.0137,0.014,0,0,0,0,0,0.0084,0.0113,0.0108,0.0113,0.0133,0.0148,0.0148,0.0141,0.0131,0.0139,0.0119,0.0113,0.0095,0.009,0.0089,0.0108,0.0092,0.0093,0.0094,0.0131,0.0136,0.014,0,0,0,0,0,0,0.0092,0.0114,0.0108,0.0142,0.0145,0.0145,0.0157,0.0147,0.0139,0.0135,0.0114,0.011,0.0112,0.0103,0.0098,0.0113,0.0095,0.0096,0.0124,0.0128,0.0132,0.0148,0.0085,0,0,0,0,0,0.0099,0.0129,0.0134,0.016,0.0166,0.016,0.0164,0.0158,0.0152,0.0148,0.0135,0.0123,0.0116,0.0115,0.0107,0.0115,0.0095,0.0128,0.0132,0.0135,0.0147,0.0125,0.0128,0.0098,0.0098,0.0098,0,0,0.0108,0.0126,0.014,0.0164,0.0167,0.0182,0.0162,0.0175,0.0184,0.0147,0.0153,0.0134,0.012,0.0125,0.0126,0.012,0.013,0.0136,0.0139,0.015,0.0126,0.0129,0.0131,0.0099,0.0099,0.0099,0,0,0.0149,0.0158,0.0196,0.0199,0.0211,0.0205,0.021,0.0209,0.0206,0.0206,0.0181,0.0171,0.0164,0.0156,0.0151,0.0172,0.0147,0.0173,0.0209,0.0187,0.019,0.0191,0.0158,0.0156,0.0178,0.0178,0.0178,0,0.0156,0.0206,0.0206,0.0235,0.0243,0.0218,0.0246,0.024,0.0231,0.0238,0.0215,0.0203,0.0182,0.0194,0.0194,0.0183,0.0159,0.0194,0.0192,0.0194,0.0195,0.016,0.0158,0.018,0.018,0.018,0.018,0,0.0219,0.0252,0.0274,0.0302,0.0306,0.0327,0.0315,0.0316,0.0303,0.0296,0.03,0.0264,0.0262,0.025,0.0226,0.0233,0.0209,0.0196,0.0182,0.02,0.0162,0.0159,0.0183,0.0183,0.0182,0.0182,0,0,0.0245,0.031,0.0314,0.0346,0.0343,0.0362,0.0368,0.0382,0.0404,0.0375,0.0401,0.0368,0.0347,0.034,0.0308,0.0283,0.0255,0.0245,0.0243,0.0213,0.0196,0.0172,0.0166,0.0238,0.0238,0.0238,0.0162,0,0.0293,0.038,0.0383,0.0441,0.0481,0.0453,0.0468,0.0467,0.046,0.0473,0.0434,0.0439,0.0383,0.038,0.0348,0.0287,0.0251,0.0277,0.0182,0.0179,0.0157,0.0164,0.0233,0.017,0.0158,0.0158,0.0158,0,0.0337,0.0402,0.0483,0.0537,0.0549,0.0568,0.0594,0.0604,0.0599,0.0593,0.058,0.0542,0.0508,0.0452,0.0357,0.0375,0.029,0.023,0.0225,0.0191,0.0151,0.0152,0.0165,-0.0023,0.0153,0.0153,0.0153,0,0.0369,0.0454,0.0534,0.0549,0.0605,0.0633,0.0648,0.065,0.0682,0.0672,0.0692,0.0632,0.0622,0.051,0.038,0.0366,0.0266,0.0233,0.0128,0.0124,0.016,0.016,-0.0014,0.0156,0.0156,0.0156,0.0156,0,0.0406,0.0462,0.0567,0.061,0.0701,0.07,0.0772,0.0774,0.0795,0.0861,0.0767,0.0802,0.0636,0.0558,0.0414,0.0271,0.0292,0.0138,0.0108,0.0174,0.0176,-0.0004,-0.0133,0.0153,0.0154,0.0154,0.0155,0,0.0411,0.0478,0.0582,0.0685,0.0725,0.0784,0.0863,0.0914,0.0916,0.0998,0.0998,0.0936,0.0839,0.0657,0.0482,0.0336,0.0086,0.012,0.02,0.0181,-0.0099,-0.0227,-0.0369,-0.0483,-0.0008,-0.0009,-0.001,0,0.0423,0.0488,0.0645,0.0727,0.0781,0.0877,0.0944,0.0974,0.1046,0.11,0.1158,0.1076,0.1082,0.0797,0.0509,0.0248,0.0067,0.0105,0.0086,-0.0106,-0.0271,-0.0297,-0.0386,0.0141,0.0141,0.0142,0.0142,0,0.0458,0.0518,0.0614,0.079,0.0898,0.1013,0.1125,0.121,0.1269,0.1358,0.1466,0.1473,0.1201,0.0999,0.0599,0.0384,-0.0012,0.0103,-0.0103,-0.0178,-0.0207,-0.0332,0.0161,0.0146,0.0145,0.0145,0.0145,0.0145,0.0489,0.0561,0.0708,0.0863,0.0989,0.1154,0.1272,0.1426,0.159,0.1811,0.1769,0.1946,0.1571,0.1052,0.0597,-0.0023,-0.0014,-0.0129,-0.0272,-0.0281,-0.0384,0.0103,0.0056,0.0056,0.0055,0.0054,0.0054,0,0.0544,0.0635,0.0778,0.0972,0.1106,0.1173,0.1395,0.1564,0.1823,0.2132,0.2295,0.2408,0.184,0.121,0.034,-0.0218,-0.0436,-0.0501,-0.0528,-0.061,-0.0169,-0.0156,-0.0239,-0.0239,-0.0239,-0.0239,-0.0239,-0.0239,0.0584,0.0724,0.0802,0.1046,0.1172,0.1387,0.1532,0.1833,0.2141,0.2675,0.3008,0.3186,0.2913,0.1187,-0.0063,-0.0492,-0.0907,-0.0954,-0.1191,-0.09,-0.0875,-0.0851,-0.0868,-0.1099,-0.1101,-0.1497,-0.1502,-0.1506]}],[{"header":{"parameterUnit":"m.s-1","parameterCategory":2,"la1":30.2991,"la2":30.254,"lo1":-89.0895,"lo2":-89.0444,"dx":0.0017,"dy":0.0017,"nx":28,"ny":28,"refTime":"2023-02-12T09:00:00:Z","depth":"2","parameterNumber":2,"parameterNumberName":"U-component_of_CURRENTS"},"data":[0,0,0,0,0,0,0,0,0,0,0,0,0,0,0,0,0,0,0,0,0,0,0,0,0,0,0,0,0,0,0,0,0,0,0,0,0,0,0,0,0,0,0,0,0,0,0,0,0,0,0,0,0,0,0,0,0,0,0.3274,0.3275,0,0.33,0.3299,0.3299,0.326,0.3259,0.3258,0.3257,0.3134,0.3132,0.3129,0,0,0,0,0,0,0,0,0,0,0,0,0,0.3237,0.3237,0.3274,0.3275,0.3276,0.33,0.3299,0.3299,0.326,0.3259,0.3258,0.3257,0.3135,0.3132,0.3129,0,0,0,0,0,0,0,0,0,0,0,0,0,0.3252,0.3238,0.3274,0.3263,0.3263,0.33,0.3299,0.3299,0.326,0.3259,0.3258,0.3256,0.3136,0.3132,0.3129,0.3132,0,0,0.3117,0.3116,0,0,0,0,0,0,0,0,0.3251,0.3253,0.3264,0.3264,0.3264,0.328,0.3242,0.3238,0.3261,0.3256,0.3257,0.3256,0.3173,0.3167,0.3169,0.3126,0.3121,0.3117,0.3115,0.3113,0.3112,0,0,0,0,0,0,0,0.325,0.3252,0.3279,0.3265,0.3265,0.3273,0.3272,0.3241,0.3215,0.3256,0.3254,0.3266,0.3171,0.3173,0.3165,0.3119,0.3117,0.3114,0.3111,0.311,0.3031,0.3031,0,0,0,0,0,0,0.3257,0.3251,0.3278,0.328,0.326,0.3275,0.3274,0.3272,0.3218,0.3212,0.3267,0.3264,0.318,0.317,0.3161,0.3157,0.3113,0.311,0.3108,0.3031,0.3031,0.3031,0,0,0,0,0,0,0.3256,0.3258,0.3277,0.3271,0.3274,0.3277,0.3275,0.3273,0.3275,0.323,0.3218,0.3272,0.3178,0.3166,0.315,0.3152,0.3108,0.3105,0.3031,0.3031,0.3031,0.3152,0,0,0,0,0,0,0.3254,0.3257,0.3252,0.3271,0.3275,0.33,0.3276,0.3275,0.3287,0.3283,0.323,0.3217,0.3176,0.3156,0.3146,0.3146,0.3102,0.3031,0.3031,0.3031,0.3148,0.3157,0.3164,0,0,0,0,0,0.3252,0.3235,0.3251,0.3254,0.3268,0.3302,0.3304,0.3298,0.3289,0.3294,0.327,0.3219,0.3148,0.3155,0.3143,0.3141,0.3031,0.3031,0.3031,0.3145,0.3155,0.3164,0,0,0,0,0,0,0.3192,0.3231,0.3248,0.3237,0.3277,0.3297,0.3296,0.3308,0.3296,0.3288,0.3239,0.3226,0.3215,0.3159,0.3167,0.3115,0.3073,0.3071,0.3163,0.3172,0.318,0.3177,0.3099,0,0,0,0,0,0.3188,0.319,0.3242,0.3231,0.3257,0.3286,0.3296,0.3309,0.3309,0.3303,0.3267,0.3224,0.3208,0.3177,0.315,0.3125,0.3105,0.3107,0.3115,0.3123,0.311,0.3109,0.3117,0.3032,0.3032,0.3032,0,0,0.3156,0.3182,0.3178,0.3222,0.3247,0.3287,0.3286,0.3313,0.3335,0.329,0.328,0.3264,0.3214,0.3199,0.3183,0.3148,0.3142,0.3123,0.313,0.3112,0.311,0.3119,0.3126,0.3033,0.3032,0.3032,0,0,0.3109,0.313,0.3132,0.3182,0.3245,0.3277,0.3294,0.3331,0.3334,0.3351,0.3326,0.3314,0.3267,0.3238,0.3219,0.3246,0.3203,0.3225,0.3242,0.3243,0.3251,0.3257,0.3281,0.3288,0.3207,0.3207,0.3207,0,0.3081,0.3093,0.3137,0.3176,0.3214,0.3278,0.3311,0.3338,0.3359,0.3369,0.3353,0.3325,0.3285,0.3278,0.3284,0.3265,0.3266,0.3221,0.3257,0.3262,0.3267,0.3289,0.3295,0.3213,0.3212,0.3211,0.3211,0,0.3063,0.3084,0.3093,0.3169,0.3213,0.3254,0.3326,0.3359,0.3381,0.3405,0.3416,0.3384,0.3355,0.3347,0.3324,0.3327,0.3324,0.3293,0.3244,0.3283,0.3303,0.3308,0.3221,0.3219,0.3217,0.3216,0,0,0.3016,0.3066,0.3083,0.3113,0.3223,0.3259,0.3318,0.3389,0.3427,0.3442,0.3454,0.3445,0.3435,0.3409,0.3379,0.3368,0.3419,0.334,0.3337,0.3383,0.3447,0.3533,0.3546,0.3405,0.3405,0.3405,0.3465,0,0.3009,0.3045,0.3082,0.314,0.3184,0.3269,0.3326,0.34,0.3443,0.347,0.3467,0.3472,0.3457,0.3446,0.344,0.3418,0.3429,0.3406,0.3382,0.3382,0.3469,0.3553,0.3127,0.3151,0.3469,0.3469,0.347,0,0.3037,0.305,0.3086,0.3152,0.318,0.3221,0.3336,0.3389,0.3469,0.3501,0.3518,0.3513,0.3509,0.3479,0.3486,0.3477,0.347,0.3458,0.3459,0.3492,0.3476,0.3151,0.3147,0.3477,0.3476,0.3476,0.3475,0,0.3052,0.308,0.3096,0.3129,0.3209,0.3236,0.3286,0.3394,0.346,0.3507,0.3553,0.3548,0.3556,0.3538,0.3542,0.3508,0.3558,0.3501,0.3581,0.3587,0.3192,0.3165,0.3512,0.3512,0.3512,0.3512,0.3512,0,0.3098,0.3126,0.309,0.3128,0.3158,0.322,0.3292,0.336,0.3452,0.354,0.3551,0.3611,0.3574,0.3603,0.357,0.3626,0.3592,0.361,0.3615,0.323,0.3207,0.3441,0.3432,0.3514,0.3514,0.3513,0.3513,0,0.3177,0.3159,0.3171,0.3177,0.3181,0.3211,0.3301,0.3357,0.3463,0.3566,0.3586,0.3671,0.3733,0.3725,0.3714,0.37,0.3705,0.3731,0.3316,0.3276,0.3718,0.3714,0.3804,0.3807,0.381,0.3813,0.3815,0,0.3222,0.323,0.3195,0.3165,0.3162,0.32,0.3246,0.3362,0.3437,0.3623,0.3668,0.3769,0.3843,0.3897,0.3747,0.3714,0.3841,0.3459,0.3328,0.3755,0.375,0.3741,0.3733,0.2835,0.2829,0.2824,0.282,0,0.3266,0.3243,0.3219,0.3164,0.3157,0.3196,0.3258,0.3342,0.3507,0.3574,0.3735,0.3802,0.3826,0.3601,0.3592,0.3515,0.3423,0.3375,0.3862,0.2893,0.2865,0.2854,0.2872,0.2776,0.278,0.2784,0.2786,0.2788,0.3248,0.3219,0.3145,0.3106,0.3115,0.3165,0.3219,0.3124,0.3206,0.3161,0.3511,0.339,0.3454,0.3146,0.3081,0.2985,0.3239,0.3117,0.3119,0.3129,0.3073,0.3059,0.2995,0.3,0.3005,0.3009,0.3013,0,0.3094,0.3109,0.3073,0.3029,0.296,0.3097,0.3203,0.3018,0.2866,0.2822,0.278,0.2572,0.2463,0.2574,0.2308,0.2403,0.2199,0.2397,0.2073,0.2121,0.2163,0.2044,0.1699,0.1696,0.1692,0.1689,0,0,0.3,0.288,0.2873,0.2784,0.2865,0.2683,0.2749,0.2461,0.2275,0.1944,0.1851,0.1965,0.2358,0.1874,0.1906,0.1779,0.1895,0.1681,0.272,0.2373,0.2409,0.2569,0.2446,0,0,0,0,0]},{"header":{"parameterUnit":"m.s-1","parameterCategory":2,"la1":30.2991,"la2":30.254,"lo1":-89.0895,"lo2":-89.0444,"dx":0.0017,"dy":0.0017,"nx":28,"ny":28,"refTime":"2023-02-12T09:00:00:Z","depth":"2","parameterNumber":3,"parameterNumberName":"V-component_of_CURRENTS"},"data":[0,0,0,0,0,0,0,0,0,0,0,0,0,0,0,0,0,0,0,0,0,0,0,0,0,0,0,0,0,0,0,0,0,0,0,0,0,0,0,0,0,0,0,0,0,0,0,0,0,0,0,0,0,0,0,0,0,0,0.0148,0.0148,0,0.0146,0.0146,0.0146,0.0127,0.0127,0.0126,0.0126,0.0103,0.0103,0.0103,0,0,0,0,0,0,0,0,0,0,0,0,0,0.0084,0.0085,0.0148,0.0148,0.0148,0.0146,0.0146,0.0146,0.0127,0.0127,0.0126,0.0126,0.0103,0.0103,0.0103,0,0,0,0,0,0,0,0,0,0,0,0,0,0.0099,0.0086,0.0148,0.0139,0.0139,0.0146,0.0146,0.0146,0.0127,0.0127,0.0126,0.0126,0.0103,0.0103,0.0103,0.0111,0,0,0.0101,0.0101,0,0,0,0,0,0,0,0,0.0098,0.0101,0.014,0.014,0.0139,0.0138,0.0115,0.0134,0.0127,0.013,0.0126,0.0125,0.0114,0.0113,0.0112,0.011,0.0109,0.0101,0.0101,0.0101,0.0101,0,0,0,0,0,0,0,0.0097,0.0101,0.0146,0.0141,0.014,0.0119,0.012,0.0118,0.0124,0.013,0.0129,0.0131,0.0113,0.0112,0.0111,0.0108,0.0101,0.0101,0.0101,0.01,0.0109,0.011,0,0,0,0,0,0,0.0104,0.01,0.0146,0.0146,0.0118,0.012,0.0122,0.0137,0.0124,0.0122,0.0131,0.013,0.0113,0.0112,0.011,0.0124,0.0101,0.01,0.01,0.0109,0.0109,0.011,0,0,0,0,0,0,0.0102,0.0108,0.0146,0.0123,0.0126,0.0123,0.0139,0.0138,0.014,0.0126,0.0123,0.0135,0.0113,0.0111,0.0103,0.0123,0.01,0.01,0.0108,0.0109,0.011,0.0149,0,0,0,0,0,0,0.0101,0.0108,0.0121,0.0124,0.0128,0.0159,0.014,0.0138,0.0142,0.0141,0.0128,0.0125,0.0112,0.0104,0.0103,0.0122,0.01,0.0108,0.0108,0.0109,0.0147,0.0151,0.0155,0,0,0,0,0,0.0099,0.0127,0.0122,0.0127,0.0146,0.016,0.0161,0.0154,0.0143,0.0152,0.0132,0.0126,0.0109,0.0103,0.0102,0.0122,0.0107,0.0108,0.0109,0.0146,0.0151,0.0155,0,0,0,0,0,0,0.0107,0.0128,0.0122,0.0155,0.0158,0.0158,0.017,0.0159,0.0152,0.0148,0.0127,0.0123,0.0125,0.0117,0.0111,0.0127,0.011,0.011,0.0138,0.0142,0.0146,0.0163,0.0099,0,0,0,0,0,0.0115,0.0143,0.0148,0.0174,0.0179,0.0173,0.0177,0.0171,0.0165,0.0161,0.0148,0.0136,0.013,0.0129,0.0121,0.013,0.0109,0.0143,0.0146,0.015,0.0162,0.014,0.0142,0.0113,0.0113,0.0113,0,0,0.0124,0.0141,0.0154,0.0177,0.018,0.0195,0.0174,0.0188,0.0197,0.016,0.0166,0.0147,0.0133,0.0139,0.014,0.0134,0.0145,0.0151,0.0154,0.0165,0.0141,0.0144,0.0146,0.0114,0.0114,0.0114,0,0,0.0165,0.0173,0.021,0.0213,0.0224,0.0218,0.0223,0.0222,0.0219,0.0219,0.0194,0.0184,0.0178,0.0169,0.0166,0.0186,0.0162,0.0187,0.0224,0.0202,0.0204,0.0206,0.0172,0.017,0.0193,0.0193,0.0193,0,0.0172,0.0221,0.022,0.0249,0.0257,0.0231,0.0259,0.0253,0.0244,0.0251,0.0228,0.0216,0.0196,0.0208,0.0209,0.0197,0.0173,0.0208,0.0207,0.0208,0.0209,0.0174,0.0172,0.0195,0.0195,0.0194,0.0194,0,0.0234,0.0267,0.0289,0.0316,0.032,0.0341,0.0329,0.033,0.0316,0.0309,0.0314,0.0278,0.0276,0.0264,0.0241,0.0248,0.0224,0.021,0.0196,0.0214,0.0176,0.0173,0.0198,0.0197,0.0196,0.0196,0,0,0.026,0.0325,0.0328,0.036,0.0357,0.0376,0.0382,0.0396,0.0418,0.0388,0.0415,0.0382,0.0361,0.0354,0.0322,0.0297,0.0269,0.0259,0.0257,0.0227,0.021,0.0185,0.0179,0.0252,0.0252,0.0252,0.0175,0,0.0307,0.0394,0.0397,0.0454,0.0495,0.0467,0.0482,0.0481,0.0474,0.0487,0.0448,0.0453,0.0397,0.0394,0.0362,0.0301,0.0265,0.0291,0.0196,0.0193,0.0171,0.0177,0.0165,0.0096,0.0172,0.0171,0.0171,0,0.0351,0.0415,0.0496,0.0551,0.0563,0.0582,0.0608,0.0618,0.0613,0.0607,0.0594,0.0556,0.0522,0.0466,0.0371,0.0389,0.0304,0.0243,0.0239,0.0205,0.0164,0.0092,0.0087,0.0165,0.0166,0.0166,0.0166,0,0.0383,0.0468,0.0547,0.0562,0.0618,0.0646,0.0661,0.0664,0.0696,0.0685,0.0705,0.0645,0.0634,0.0523,0.0393,0.038,0.0279,0.0246,0.0141,0.0137,0.0105,0.0099,0.0169,0.0169,0.0169,0.0169,0.017,0,0.0421,0.0476,0.058,0.0622,0.0713,0.0713,0.0785,0.0787,0.0808,0.0874,0.078,0.0815,0.0648,0.057,0.0427,0.0284,0.0304,0.0151,0.0121,0.0117,0.0113,0.016,0.016,0.0166,0.0167,0.0168,0.0168,0,0.0426,0.0493,0.0595,0.0697,0.0737,0.0797,0.0876,0.0927,0.0929,0.101,0.101,0.0947,0.0849,0.0667,0.0492,0.0348,0.0195,0.0132,0.0131,0.0103,0.0052,0.0055,0.0005,0.0004,0.0003,0.0002,0.0001,0,0.0438,0.0502,0.0658,0.0739,0.0793,0.0889,0.0956,0.0987,0.1058,0.1111,0.1169,0.1085,0.108,0.0794,0.0494,0.0229,0.0204,0.0031,0.0002,0.0062,0.0038,0.0043,0.0047,-0.0037,-0.0038,-0.0039,-0.004,0,0.0472,0.0531,0.0627,0.0801,0.0909,0.1026,0.1137,0.1222,0.1281,0.1358,0.1464,0.146,0.1174,0.0895,0.0486,0.0294,0.0069,0.0006,0.0074,0.0015,0.0018,-0.0004,0.0002,-0.0047,-0.0046,-0.0046,-0.0045,-0.0045,0.0501,0.0574,0.0719,0.0875,0.1,0.1167,0.1284,0.1411,0.156,0.1698,0.165,0.1625,0.1287,0.0763,0.0412,0.0019,0.0056,-0.0096,-0.0091,-0.0087,-0.0069,-0.0066,-0.0146,-0.0146,-0.0146,-0.0146,-0.0146,0,0.0567,0.0647,0.0789,0.0984,0.1135,0.1185,0.1407,0.1563,0.1774,0.1845,0.1896,0.1551,0.1168,0.0792,0.0209,-0.0119,-0.0154,-0.0232,-0.0206,-0.0196,-0.0188,-0.0175,-0.0281,-0.0282,-0.0283,-0.0284,0,0,0.061,0.0754,0.0831,0.1087,0.1205,0.1448,0.1594,0.1815,0.1949,0.2075,0.2003,0.1782,0.1323,0.0859,0.0393,0.0074,0.0027,0.0003,0.0145,0.0242,0.0255,-0.0084,-0.0049,0,0,0,0,0]}],[{"header":{"parameterUnit":"m.s-1","parameterCategory":2,"la1":30.2991,"la2":30.254,"lo1":-89.0895,"lo2":-89.0444,"dx":0.0017,"dy":0.0017,"nx":28,"ny":28,"refTime":"2023-02-12T09:00:00:Z","depth":"4","parameterNumber":2,"parameterNumberName":"U-component_of_CURRENTS"},"data":[0,0,0,0,0,0,0,0,0,0,0,0,0,0,0,0,0,0,0,0,0,0,0,0,0,0,0,0,0,0,0,0,0,0,0,0,0,0,0,0,0,0,0,0,0,0,0,0,0,0,0,0,0,0,0,0,0,0,0.0924,0.0925,0,0.0952,0.0952,0.0952,0.098,0.098,0.0981,0.0981,0.1085,0.1087,0.109,0,0,0,0,0,0,0,0,0,0,0,0,0,0.0862,0.0863,0.0924,0.0925,0.0925,0.0952,0.0952,0.0952,0.098,0.098,0.0981,0.0982,0.1084,0.1087,0.109,0,0,0,0,0,0,0,0,0,0,0,0,0,0.0888,0.0863,0.0924,0.0943,0.0945,0.0952,0.0952,0.0953,0.098,0.098,0.0981,0.0982,0.1083,0.1087,0.109,0.1097,0,0,0.1101,0.1102,0,0,0,0,0,0,0,0,0.0886,0.089,0.094,0.0942,0.0944,0.0965,0.0968,0.1005,0.0979,0.0965,0.0981,0.0982,0.1052,0.1058,0.1059,0.1102,0.1106,0.1101,0.1103,0.1105,0.1106,0,0,0,0,0,0,0,0.0885,0.0889,0.0934,0.094,0.0943,0.0939,0.0944,0.0975,0.1005,0.0966,0.0969,0.0974,0.1054,0.1055,0.1062,0.1108,0.1101,0.1104,0.1106,0.1108,0.129,0.1293,0,0,0,0,0,0,0.0885,0.0887,0.0933,0.0935,0.0918,0.094,0.0945,0.0956,0.1003,0.101,0.0973,0.0975,0.1049,0.1058,0.1066,0.114,0.1105,0.1108,0.111,0.1287,0.1291,0.1294,0,0,0,0,0,0,0.0884,0.0889,0.0932,0.0912,0.0918,0.094,0.0953,0.0956,0.0983,0.1007,0.1016,0.0999,0.105,0.1061,0.1106,0.1142,0.1109,0.1113,0.1284,0.1288,0.1292,0.1248,0,0,0,0,0,0,0.0882,0.0889,0.0912,0.0913,0.0919,0.0952,0.0952,0.0956,0.0984,0.0987,0.1032,0.1041,0.1051,0.11,0.1109,0.1146,0.1115,0.128,0.1286,0.1291,0.1246,0.125,0.1254,0,0,0,0,0,0.088,0.0912,0.0913,0.092,0.0946,0.0953,0.0956,0.0973,0.0985,0.0999,0.1025,0.1041,0.1142,0.1104,0.1114,0.1153,0.1278,0.1284,0.129,0.1244,0.1249,0.1253,0,0,0,0,0,0,0.0903,0.0917,0.092,0.0956,0.0959,0.0959,0.0988,0.0987,0.1016,0.1032,0.105,0.106,0.1115,0.1152,0.111,0.123,0.1224,0.1233,0.1186,0.1191,0.1195,0.1212,0.1118,0,0,0,0,0,0.0916,0.0954,0.0943,0.0983,0.0984,0.0988,0.1,0.1003,0.102,0.1035,0.1062,0.111,0.1146,0.118,0.1215,0.1271,0.1308,0.1317,0.1321,0.1324,0.1351,0.143,0.1442,0.1314,0.1314,0.1314,0,0,0.0947,0.0956,0.0984,0.0992,0.1003,0.1004,0.0999,0.1024,0.1036,0.1043,0.1091,0.1114,0.1162,0.1214,0.1248,0.1251,0.1375,0.1332,0.1332,0.1359,0.1438,0.145,0.146,0.1318,0.1318,0.1317,0,0,0.1011,0.1023,0.1066,0.1053,0.1062,0.105,0.1059,0.1062,0.1079,0.1109,0.1123,0.1165,0.123,0.1259,0.1285,0.1344,0.1381,0.1379,0.1418,0.1493,0.1504,0.1513,0.1539,0.1551,0.1393,0.1393,0.1393,0,0.1051,0.1079,0.108,0.1087,0.1085,0.107,0.1083,0.1089,0.1108,0.1136,0.1134,0.1236,0.1253,0.1323,0.1337,0.1349,0.1391,0.1378,0.1494,0.1504,0.1515,0.154,0.1554,0.1392,0.1392,0.1392,0.1392,0,0.111,0.113,0.115,0.1152,0.1151,0.116,0.1143,0.1162,0.1177,0.1188,0.1264,0.1284,0.136,0.1366,0.1361,0.1458,0.146,0.1469,0.1465,0.1524,0.1547,0.1562,0.139,0.139,0.139,0.1391,0,0,0.118,0.1197,0.12,0.1203,0.1176,0.118,0.1199,0.1217,0.1255,0.1283,0.1357,0.1391,0.1424,0.146,0.1472,0.1524,0.159,0.1535,0.1539,0.1531,0.1739,0.1626,0.1632,0.1625,0.1629,0.1631,0.1708,0,0.1221,0.1259,0.1251,0.127,0.1267,0.1247,0.1263,0.1278,0.1308,0.1372,0.1414,0.149,0.1457,0.1508,0.1552,0.1606,0.1638,0.1567,0.1712,0.1715,0.1585,0.1649,0.1643,0.172,0.1724,0.1726,0.1728,0,0.1228,0.1261,0.1296,0.131,0.1313,0.1333,0.136,0.1379,0.1441,0.1471,0.1551,0.1596,0.1689,0.1649,0.1767,0.1734,0.1739,0.1752,0.1756,0.1687,0.1634,0.1666,0.1756,0.1754,0.1752,0.175,0.1748,0,0.1209,0.1263,0.1303,0.1297,0.1322,0.1363,0.1394,0.1432,0.1457,0.1571,0.1622,0.1729,0.1821,0.1864,0.1899,0.1858,0.2016,0.196,0.1848,0.1839,0.193,0.192,0.2027,0.2027,0.2026,0.2026,0.2026,0,0.1171,0.1196,0.1318,0.1319,0.138,0.1402,0.1462,0.1498,0.1572,0.1613,0.1705,0.1769,0.189,0.1983,0.1968,0.1976,0.2082,0.1874,0.1869,0.1905,0.1892,0.1938,0.1927,0.2029,0.2028,0.2028,0.2027,0,0.1072,0.1148,0.1197,0.1311,0.1353,0.1397,0.1483,0.1511,0.1606,0.1674,0.1725,0.1863,0.1988,0.2065,0.2163,0.2071,0.208,0.2041,0.2081,0.2074,0.1819,0.1805,0.1914,0.1911,0.1908,0.1906,0.1905,0,0.1016,0.1039,0.1189,0.1242,0.13,0.1385,0.141,0.15,0.1533,0.1694,0.1724,0.1913,0.1982,0.2042,0.2122,0.2126,0.2073,0.2044,0.1908,0.1833,0.1817,0.1807,0.1797,0.1901,0.19,0.1899,0.1899,0,0.0927,0.1002,0.1064,0.1177,0.1249,0.1275,0.1362,0.1374,0.147,0.1594,0.1678,0.1745,0.1891,0.1973,0.2027,0.1999,0.2053,0.2016,0.2018,0.189,0.1818,0.1802,0.1795,0.189,0.1891,0.1892,0.1893,0,0.0896,0.0919,0.1038,0.1108,0.1171,0.1158,0.1205,0.1267,0.1308,0.1497,0.1532,0.1711,0.1881,0.1908,0.1942,0.1949,0.1871,0.1745,0.1759,0.177,0.1687,0.1573,0.1586,0,0,0,0,0,0.087,0.0896,0.0964,0.1016,0.1048,0.1067,0.1157,0.1203,0.1328,0.1337,0.1425,0.1536,0.1622,0.1725,0.1699,0.1853,0.1871,0.1808,0.1729,0.1842,0.1852,0.1768,0,0,0,0,0,0,0.0867,0.0937,0.0944,0.0908,0.0893,0.0891,0.0923,0.1004,0.1032,0.1196,0.1277,0.1396,0.1536,0.162,0.1655,0.168,0.1583,0.1921,0.1915,0.1837,0.1846,0.1854,0.1771,0,0,0,0,0]},{"header":{"parameterUnit":"m.s-1","parameterCategory":2,"la1":30.2991,"la2":30.254,"lo1":-89.0895,"lo2":-89.0444,"dx":0.0017,"dy":0.0017,"nx":28,"ny":28,"refTime":"2023-02-12T09:00:00:Z","depth":"4","parameterNumber":3,"parameterNumberName":"V-component_of_CURRENTS"},"data":[0,0,0,0,0,0,0,0,0,0,0,0,0,0,0,0,0,0,0,0,0,0,0,0,0,0,0,0,0,0,0,0,0,0,0,0,0,0,0,0,0,0,0,0,0,0,0,0,0,0,0,0,0,0,0,0,0,0,0.0426,0.0426,0,0.0419,0.0419,0.0419,0.0417,0.0417,0.0417,0.0417,0.0376,0.0375,0.0374,0,0,0,0,0,0,0,0,0,0,0,0,0,0.039,0.0391,0.0426,0.0426,0.0425,0.0419,0.0419,0.0419,0.0417,0.0417,0.0417,0.0417,0.0377,0.0375,0.0374,0,0,0,0,0,0,0,0,0,0,0,0,0,0.0397,0.0391,0.0426,0.0424,0.0424,0.0419,0.0419,0.0419,0.0417,0.0417,0.0417,0.0417,0.0377,0.0376,0.0374,0.0362,0,0,0.0369,0.0368,0,0,0,0,0,0,0,0,0.0396,0.0398,0.0424,0.0424,0.0424,0.0419,0.0391,0.0398,0.0417,0.0419,0.0417,0.0417,0.0387,0.0385,0.0384,0.036,0.0359,0.0369,0.0368,0.0367,0.0366,0,0,0,0,0,0,0,0.0396,0.0398,0.0423,0.0424,0.0424,0.0407,0.0409,0.0393,0.0402,0.0419,0.0419,0.0418,0.0387,0.0386,0.0383,0.0358,0.0369,0.0367,0.0366,0.0365,0.0336,0.0336,0,0,0,0,0,0,0.04,0.0398,0.0423,0.0423,0.041,0.0408,0.041,0.042,0.0403,0.0401,0.0418,0.0418,0.0388,0.0385,0.0381,0.0383,0.0367,0.0365,0.0364,0.0335,0.0336,0.0336,0,0,0,0,0,0,0.0399,0.0403,0.0423,0.0409,0.0411,0.0409,0.0421,0.042,0.0427,0.0403,0.04,0.0426,0.0388,0.0384,0.0376,0.0381,0.0365,0.0363,0.0335,0.0335,0.0336,0.0376,0,0,0,0,0,0,0.0398,0.0403,0.0415,0.041,0.0412,0.043,0.042,0.042,0.0426,0.0426,0.0409,0.0405,0.0388,0.0378,0.0374,0.0378,0.0362,0.0335,0.0335,0.0336,0.0375,0.0378,0.0381,0,0,0,0,0,0.0397,0.0417,0.0416,0.0419,0.0428,0.043,0.043,0.0428,0.0426,0.0433,0.0421,0.0406,0.0378,0.0377,0.0372,0.0376,0.0335,0.0335,0.0336,0.0373,0.0377,0.0381,0,0,0,0,0,0,0.0408,0.0418,0.0417,0.0439,0.0437,0.043,0.0439,0.0434,0.043,0.0433,0.0409,0.0404,0.04,0.0382,0.0382,0.0368,0.0353,0.0353,0.0384,0.0387,0.039,0.0396,0.036,0,0,0,0,0,0.0416,0.0433,0.0433,0.0449,0.0453,0.0447,0.0449,0.0447,0.0441,0.044,0.0426,0.041,0.0396,0.0388,0.0374,0.0366,0.0336,0.0365,0.0368,0.037,0.0371,0.0331,0.033,0.0337,0.0337,0.0337,0,0,0.0421,0.043,0.0438,0.0452,0.0453,0.0463,0.0449,0.0459,0.0464,0.0435,0.044,0.0422,0.0397,0.0391,0.0386,0.0377,0.0353,0.0371,0.0374,0.0373,0.0331,0.033,0.033,0.0338,0.0338,0.0338,0,0,0.0438,0.0453,0.0472,0.0477,0.0485,0.0481,0.0487,0.0485,0.0484,0.0483,0.0464,0.0448,0.043,0.041,0.0398,0.0407,0.0372,0.0406,0.0423,0.0384,0.0383,0.0381,0.0343,0.0338,0.0405,0.0405,0.0405,0,0.0443,0.0473,0.0475,0.0494,0.0503,0.0492,0.0511,0.0507,0.05,0.0498,0.0491,0.0458,0.0437,0.042,0.0425,0.0414,0.0387,0.0412,0.0388,0.0386,0.0384,0.0344,0.0338,0.0407,0.0407,0.0406,0.0406,0,0.047,0.0498,0.0511,0.0533,0.054,0.0557,0.0552,0.0556,0.0551,0.0539,0.0526,0.0494,0.0472,0.0463,0.0448,0.0426,0.041,0.0398,0.0379,0.0385,0.0343,0.0336,0.041,0.0409,0.0408,0.0408,0,0,0.0475,0.0522,0.0527,0.0553,0.0567,0.0579,0.0587,0.059,0.0596,0.0575,0.0571,0.054,0.0518,0.0502,0.0475,0.044,0.0403,0.0418,0.0415,0.0382,0.0316,0.029,0.0279,0.0387,0.0386,0.0386,0.0293,0,0.0497,0.0547,0.056,0.0605,0.0634,0.0632,0.0641,0.0639,0.0628,0.0619,0.0576,0.0563,0.0533,0.0526,0.0485,0.0428,0.0386,0.0429,0.0314,0.031,0.0287,0.0271,0.0383,0.0287,0.0285,0.0284,0.0283,0,0.0522,0.0557,0.0609,0.0658,0.0669,0.0691,0.071,0.0719,0.0695,0.0681,0.0649,0.0613,0.0564,0.0537,0.043,0.0461,0.0392,0.034,0.0335,0.0291,0.0271,0.0278,0.027,0.0271,0.0272,0.0273,0.0274,0,0.0536,0.0593,0.0642,0.0659,0.0704,0.0729,0.0749,0.0743,0.076,0.0725,0.0719,0.0647,0.062,0.0524,0.0418,0.0424,0.0293,0.0284,0.0191,0.0188,0.0222,0.0225,0.0198,0.0198,0.0198,0.0198,0.0199,0,0.0561,0.0606,0.0661,0.0693,0.0756,0.0768,0.082,0.0819,0.0819,0.0836,0.0761,0.0741,0.0617,0.0528,0.0423,0.0284,0.0291,0.0186,0.0159,0.0242,0.0247,0.0217,0.022,0.0195,0.0196,0.0196,0.0197,0,0.0581,0.0616,0.0683,0.0743,0.0774,0.0821,0.0892,0.0923,0.0904,0.092,0.0913,0.0818,0.0696,0.0557,0.0397,0.0298,0.0163,0.011,0.0206,0.0188,0.0082,0.0089,-0.0005,-0.0007,-0.0009,-0.001,-0.0011,0,0.0598,0.0635,0.0725,0.0779,0.0821,0.0895,0.0952,0.0973,0.1005,0.0965,0.0974,0.0858,0.0776,0.0529,0.0375,0.0154,0.0123,0.0043,0.006,0.0077,0.006,0.0069,0.0077,-0.0013,-0.0014,-0.0014,-0.0014,0,0.0631,0.0662,0.0716,0.0824,0.0907,0.0997,0.1073,0.1096,0.1108,0.1089,0.1015,0.0869,0.0723,0.0529,0.0353,0.0196,0.009,0.0027,0.0029,0.0044,0.0066,0.0053,0.0063,-0.002,-0.0019,-0.0018,-0.0018,0,0.0651,0.0692,0.0764,0.0867,0.097,0.1067,0.1104,0.1136,0.1162,0.1108,0.1082,0.0902,0.0805,0.0549,0.0389,0.0227,0.0186,0.0128,0.0125,0.0128,0.0191,0.0239,0.0177,0,0,0,0,0,0.0662,0.0718,0.0806,0.0919,0.1018,0.1094,0.1173,0.1196,0.1199,0.1159,0.112,0.0977,0.0707,0.0589,0.0426,0.0362,0.0161,0.0161,0.0095,-0.0048,-0.0042,0.0006,0,0,0,0,0,0,0.0673,0.0747,0.0803,0.0947,0.1035,0.1159,0.1218,0.1225,0.1197,0.1159,0.1028,0.0932,0.0687,0.0816,0.0426,0.0373,0.0303,0.0036,0.0032,-0.0052,-0.0046,-0.0042,0.001,0,0,0,0,0]}]]